Location: Solon
(41.3849°N, 81.4081°W)
Time: 09:43:28
(UTC-04:00)

CZ-2C R/B - Visible Passes

Search period start: 16 April 2014 00:00
Search period end: 26 April 2014 00:00
Orbit: 704 x 910 km, 98.1° (Epoch: 16 April)

Date Brightness Start Highest point End Pass type
(mag) Time Alt. Az. Time Alt. Az. Time Alt. Az.
16 Apr 3.0 04:54:29 10° SSE 04:59:13 74° ENE 05:03:58 10° N visible
17 Apr 4.0 04:30:23 10° SE 04:34:50 42° ENE 04:39:19 10° N visible
17 Apr 4.2 06:11:35 10° SW 06:14:58 19° W 06:18:22 10° NW visible
18 Apr 5.0 04:06:42 10° ESE 04:10:33 25° ENE 04:14:25 10° NNE visible
18 Apr 3.5 05:46:03 10° SSW 05:50:19 33° W 05:54:37 10° NNW visible
19 Apr 5.7 03:43:37 10° E 03:46:21 15° ENE 03:49:05 10° NNE visible
19 Apr 2.8 05:21:06 10° S 05:25:45 59° W 05:30:29 10° NNW visible
20 Apr 2.9 04:56:33 10° SSE 05:01:17 80° ENE 05:06:05 10° N visible
21 Apr 3.9 04:32:24 10° SE 04:36:53 45° ENE 04:41:28 10° N visible
22 Apr 4.9 04:08:38 10° ESE 04:12:35 27° ENE 04:16:36 10° N visible
22 Apr 3.6 05:48:14 10° SSW 05:52:24 31° W 05:56:40 10° NNW visible
23 Apr 5.6 03:45:26 10° E 03:48:23 17° ENE 03:51:22 10° NNE visible
23 Apr 2.9 05:23:12 10° S 05:27:49 54° W 05:32:34 10° NNW visible
24 Apr 2.9 04:58:36 10° SSE 05:03:20 85° ENE 05:08:12 10° NNW visible
25 Apr 3.8 04:34:23 10° SE 04:38:56 49° ENE 04:43:37 10° N visible
